Location: Unspecified
(48.2082°N, 0.0000°E)
Time: 07:34:49
(UTC+00:00)

S-56A Canister/Altair - Pass Details

Date: 28 June 2019
Orbit: 632 x 2500 km, 38.9° (Epoch: 19 July)

Event Time Altitude Azimuth Distance (km) Brightness Sun altitude
Rises 12:13:56 0° 206° (SSW) 6,052 12.4 65.0°
Reaches altitude 10° 12:19:08 10° 195° (SSW) 4,868 12.2 64.9°
Maximum altitude 12:28:45 24° 149° (SSE) 3,333 11.5 64.6°
Drops below altitude 10° 12:36:23 10° 101° (E) 3,791 11.2 64.2°
Sets 12:39:47 0° 88° (E) 4,488 11.4 64.0°
